owner,sensor,date,latitude,longitude,vertical_datum,wind_speed,wind_to_direction,wind_speed_of_gust,qcFlag 
TABS,ioos:station:wmo:42047:1,2014-03-01T00:00:00Z,27.8966,-93.5973,4.0,7.258133369,164.0873815,8.49,'11111222,11111222,11111222' 
TABS,ioos:station:wmo:42047:1,2014-03-01T00:30:00Z,27.8966,-93.5973,4.0,7.595327511,164.8112887,8.47,'11111222,11111222,11111222' 
TABS,ioos:station:wmo:42047:1,2014-03-01T01:00:00Z,27.8966,-93.5973,4.0,7.375215251,162.4006023,8.41,'11111222,11111222,11111222' 
TABS,ioos:station:wmo:42047:1,2014-03-01T01:30:00Z,27.8966,-93.5973,4.0,7.573407423,164.8446565,8.82,'11111222,11111222,11111222' 
TABS,ioos:station:wmo:42047:1,2014-03-01T02:00:00Z,27.8966,-93.5973,4.0,7.436195264,172.3495774,8.95,'11111222,11111222,11111222' 
TABS,ioos:station:wmo:42047:1,2014-03-01T02:30:00Z,27.8966,-93.5973,4.0,8.175145259,167.7831076,9.4,'11111222,11111222,11111222' 
TABS,ioos:station:wmo:42047:1,2014-03-01T03:00:00Z,27.8966,-93.5973,4.0,7.858275892,170.4779777,9.12,'11111222,11111222,11111222' 
TABS,ioos:station:wmo:42047:1,2014-03-01T03:30:00Z,27.8966,-93.5973,4.0,7.357288903,167.7586259,8.47,'11111222,11111222,11111222' 
TABS,ioos:station:wmo:42047:1,2014-03-01T04:00:00Z,27.8966,-93.5973,4.0,6.911475964,167.2106721,8.18,'11111222,11111222,11111222' 
TABS,ioos:station:wmo:42047:1,2014-03-01T04:30:00Z,27.8966,-93.5973,4.0,7.041264091,170.7653259,8.56,'11111222,11111222,11111222' 
TABS,ioos:station:wmo:42047:1,2014-03-01T05:00:00Z,27.8966,-93.5973,4.0,6.933238781,160.3631091,8.23,'11111222,11111222,11111222' 
TABS,ioos:station:wmo:42047:1,2014-03-01T05:30:00Z,27.8966,-93.5973,4.0,6.969146289,164.9470242,8.05,'11111222,11111222,11111222' 
TABS,ioos:station:wmo:42047:1,2014-03-01T06:00:00Z,27.8966,-93.5973,4.0,7.07978107,166.356564,8.06,'11111222,11111222,11111222' 
TABS,ioos:station:wmo:42047:1,2014-03-01T06:30:00Z,27.8966,-93.5973,4.0,6.548679256,165.4971567,7.5,'11111222,11111222,11111222' 
TABS,ioos:station:wmo:42047:1,2014-03-01T07:00:00Z,27.8966,-93.5973,4.0,6.049876032,159.5883112,6.98,'11111222,11111222,11111222' 
TABS,ioos:station:wmo:42047:1,2014-03-01T07:30:00Z,27.8966,-93.5973,4.0,6.562659522,160.5989638,7.85,'11111222,11111222,11111222' 
TABS,ioos:station:wmo:42047:1,2014-03-01T08:00:00Z,27.8966,-93.5973,4.0,5.860759336,158.6890119,6.86,'11111222,11111222,11111222' 
TABS,ioos:station:wmo:42047:1,2014-03-01T08:30:00Z,27.8966,-93.5973,4.0,6.090155991,156.3816619,6.96,'11111222,11111222,11111222' 
TABS,ioos:station:wmo:42047:1,2014-03-01T09:00:00Z,27.8966,-93.5973,4.0,5.438979684,149.9940749,6.45,'11111222,11111222,11111222' 
TABS,ioos:station:wmo:42047:1,2014-03-01T09:30:00Z,27.8966,-93.5973,4.0,5.320009398,143.0227006,5.97,'11111222,11111222,11111222' 
TABS,ioos:station:wmo:42047:1,2014-03-01T10:00:00Z,27.8966,-93.5973,4.0,5.934652475,143.9800194,6.92,'11111222,11111222,11111222' 
TABS,ioos:station:wmo:42047:1,2014-03-01T10:30:00Z,27.8966,-93.5973,4.0,6.026118154,147.8134917,6.97,'11111222,11111222,11111222' 
TABS,ioos:station:wmo:42047:1,2014-03-01T11:00:00Z,27.8966,-93.5973,4.0,5.808476564,145.3800017,6.69,'11111222,11111222,11111222' 
TABS,ioos:station:wmo:42047:1,2014-03-01T11:30:00Z,27.8966,-93.5973,4.0,6.336718394,147.7648773,7.23,'11111222,11111222,11111222' 
TABS,ioos:station:wmo:42047:1,2014-03-01T12:00:00Z,27.8966,-93.5973,4.0,5.854109668,153.7416123,6.59,'11111222,11111222,11111222' 
TABS,ioos:station:wmo:42047:1,2014-03-01T12:30:00Z,27.8966,-93.5973,4.0,6.02536306,152.2018754,7.21,'11111222,11111222,11111222' 
TABS,ioos:station:wmo:42047:1,2014-03-01T13:00:00Z,27.8966,-93.5973,4.0,6.211682542,149.0998015,7.38,'11111222,11111222,11111222' 
TABS,ioos:station:wmo:42047:1,2014-03-01T13:30:00Z,27.8966,-93.5973,4.0,6.238541496,147.3036882,6.96,'11111222,11111222,11111222' 
TABS,ioos:station:wmo:42047:1,2014-03-01T14:00:00Z,27.8966,-93.5973,4.0,6.345652055,150.4457862,7.32,'11111222,11111222,11111222' 
TABS,ioos:station:wmo:42047:1,2014-03-01T14:30:00Z,27.8966,-93.5973,4.0,6.666160814,148.9333442,7.47,'11111222,11111222,11111222' 
TABS,ioos:station:wmo:42047:1,2014-03-01T15:00:00Z,27.8966,-93.5973,4.0,5.945031539,150.0282734,6.75,'11111222,11111222,11111222' 
TABS,ioos:station:wmo:42047:1,2014-03-01T15:30:00Z,27.8966,-93.5973,4.0,5.690140596,147.7067185,6.68,'11111222,11111222,11111222' 
TABS,ioos:station:wmo:42047:1,2014-03-01T16:00:00Z,27.8966,-93.5973,4.0,6.043459274,146.3365162,6.81,'11111222,11111222,11111222' 
TABS,ioos:station:wmo:42047:1,2014-03-01T16:30:00Z,27.8966,-93.5973,4.0,5.346073325,142.8303123,6.2,'11111222,11111222,11111222' 
TABS,ioos:station:wmo:42047:1,2014-03-01T17:00:00Z,27.8966,-93.5973,4.0,5.360643618,138.1004854,6.24,'11111222,11111222,11111222' 
TABS,ioos:station:wmo:42047:1,2014-03-01T17:30:00Z,27.8966,-93.5973,4.0,6.074018439,146.0747615,7.01,'11111222,11111222,11111222' 
TABS,ioos:station:wmo:42047:1,2014-03-01T18:00:00Z,27.8966,-93.5973,4.0,5.773127402,145.0164026,6.55,'11111222,11111222,11111222' 
TABS,ioos:station:wmo:42047:1,2014-03-01T18:30:00Z,27.8966,-93.5973,4.0,5.659257902,145.0746249,6.56,'11111222,11111222,11111222' 
TABS,ioos:station:wmo:42047:1,2014-03-01T19:00:00Z,27.8966,-93.5973,4.0,6.926658646,145.2318968,7.82,'11111222,11111222,11111222' 
TABS,ioos:station:wmo:42047:1,2014-03-01T19:30:00Z,27.8966,-93.5973,4.0,6.456136616,143.503135,7.44,'11111222,11111222,11111222' 
TABS,ioos:station:wmo:42047:1,2014-03-01T20:00:00Z,27.8966,-93.5973,4.0,6.213831346,148.3565382,7.18,'11111222,11111222,11111222' 
TABS,ioos:station:wmo:42047:1,2014-03-01T20:30:00Z,27.8966,-93.5973,4.0,6.483085685,148.369623,7.5,'11111222,11111222,11111222' 
TABS,ioos:station:wmo:42047:1,2014-03-01T21:00:00Z,27.8966,-93.5973,4.0,6.614778908,152.7379457,7.47,'11111222,11111222,11111222' 
TABS,ioos:station:wmo:42047:1,2014-03-01T21:30:00Z,27.8966,-93.5973,4.0,6.850642306,146.611775,8.6,'11111222,11111222,11111222' 
TABS,ioos:station:wmo:42047:1,2014-03-01T22:00:00Z,27.8966,-93.5973,4.0,7.002292482,143.6540807,7.98,'11111222,11111222,11111222' 
TABS,ioos:station:wmo:42047:1,2014-03-01T22:30:00Z,27.8966,-93.5973,4.0,6.851342934,141.3404926,7.72,'11111222,11111222,11111222' 
TABS,ioos:station:wmo:42047:1,2014-03-01T23:00:00Z,27.8966,-93.5973,4.0,6.863854602,141.2101273,7.86,'11111222,11111222,11111222' 
TABS,ioos:station:wmo:42047:1,2014-03-01T23:30:00Z,27.8966,-93.5973,4.0,6.689132978,140.8856686,7.49,'11111222,11111222,11111222' 
TABS,ioos:station:wmo:42047:1,2014-03-02T00:00:00Z,27.8966,-93.5973,4.0,6.979290795,140.1737104,8.22,'11111222,11111222,11111222' 
TABS,ioos:station:wmo:42047:1,2014-03-02T00:30:00Z,27.8966,-93.5973,4.0,7.373906699,144.9955411,8.44,'11111222,11111222,11111222' 
TABS,ioos:station:wmo:42047:1,2014-03-02T01:00:00Z,27.8966,-93.5973,4.0,6.907922987,140.7575817,8.22,'11111222,11111222,11111222' 
TABS,ioos:station:wmo:42047:1,2014-03-02T01:30:00Z,27.8966,-93.5973,4.0,6.678457906,136.8205393,7.77,'11111222,11111222,11111222' 
TABS,ioos:station:wmo:42047:1,2014-03-02T02:00:00Z,27.8966,-93.5973,4.0,6.244237343,134.2865903,7.17,'11111222,11111222,11111222' 
TABS,ioos:station:wmo:42047:1,2014-03-02T02:30:00Z,27.8966,-93.5973,4.0,5.812486559,135.2791244,6.63,'11111222,11111222,11111222' 
TABS,ioos:station:wmo:42047:1,2014-03-02T03:00:00Z,27.8966,-93.5973,4.0,5.869412236,134.3100401,6.69,'11111222,11111222,11111222' 
TABS,ioos:station:wmo:42047:1,2014-03-02T03:30:00Z,27.8966,-93.5973,4.0,5.738928471,139.59393,6.33,'11111222,11111222,11111222' 
TABS,ioos:station:wmo:42047:1,2014-03-02T04:00:00Z,27.8966,-93.5973,4.0,6.097023864,141.3258165,7.14,'11111222,11111222,11111222' 
TABS,ioos:station:wmo:42047:1,2014-03-02T04:30:00Z,27.8966,-93.5973,4.0,7.746231342,140.1852621,8.93,'11111222,11111222,11111222' 
TABS,ioos:station:wmo:42047:1,2014-03-02T05:00:00Z,27.8966,-93.5973,4.0,7.889138102,142.157164,9.43,'11111222,11111222,11111222' 
TABS,ioos:station:wmo:42047:1,2014-03-02T05:30:00Z,27.8966,-93.5973,4.0,7.894555086,136.6427515,9.03,'11111222,11111222,11111222' 
TABS,ioos:station:wmo:42047:1,2014-03-02T06:00:00Z,27.8966,-93.5973,4.0,8.148993803,139.4295156,9.83,'11111222,11111222,11111222' 
TABS,ioos:station:wmo:42047:1,2014-03-02T06:30:00Z,27.8966,-93.5973,4.0,9.730781058,147.976178,11.33,'11111222,11111222,11111222' 
TABS,ioos:station:wmo:42047:1,2014-03-02T07:00:00Z,27.8966,-93.5973,4.0,9.097543625,146.8866524,10.21,'11111222,11111222,11111222' 
TABS,ioos:station:wmo:42047:1,2014-03-02T07:30:00Z,27.8966,-93.5973,4.0,8.533252604,147.5393935,10.28,'11111222,11111222,11111222' 
TABS,ioos:station:wmo:42047:1,2014-03-02T08:00:00Z,27.8966,-93.5973,4.0,7.932780093,144.6473315,9.23,'11111222,11111222,11111222' 
TABS,ioos:station:wmo:42047:1,2014-03-02T08:30:00Z,27.8966,-93.5973,4.0,8.534928236,149.9806215,9.92,'11111222,11111222,11111222' 
TABS,ioos:station:wmo:42047:1,2014-03-02T09:00:00Z,27.8966,-93.5973,4.0,8.602703064,151.0815224,10.23,'11111222,11111222,11111222' 
TABS,ioos:station:wmo:42047:1,2014-03-02T09:30:00Z,27.8966,-93.5973,4.0,8.401011844,149.925485,9.94,'11111222,11111222,11111222' 
TABS,ioos:station:wmo:42047:1,2014-03-02T10:00:00Z,27.8966,-93.5973,4.0,6.300991985,150.4245783,7.51,'11111222,11111222,11111222' 
TABS,ioos:station:wmo:42047:1,2014-03-02T10:30:00Z,27.8966,-93.5973,4.0,6.114769006,144.8547471,7.01,'11111222,11111222,11111222' 
TABS,ioos:station:wmo:42047:1,2014-03-02T11:00:00Z,27.8966,-93.5973,4.0,6.242387364,140.9821307,7.54,'11111222,11111222,11111222' 
TABS,ioos:station:wmo:42047:1,2014-03-02T11:30:00Z,27.8966,-93.5973,4.0,5.656297375,142.5428759,6.53,'11111222,11111222,11111222' 
TABS,ioos:station:wmo:42047:1,2014-03-02T12:00:00Z,27.8966,-93.5973,4.0,5.477116029,132.7806653,6.36,'11111222,11111222,11111222' 
TABS,ioos:station:wmo:42047:1,2014-03-02T12:30:00Z,27.8966,-93.5973,4.0,5.052405368,126.1444356,5.7,'11111222,11111222,11111222' 
TABS,ioos:station:wmo:42047:1,2014-03-02T13:00:00Z,27.8966,-93.5973,4.0,6.197200981,125.7422198,8.31,'11111222,11111222,11111222' 
TABS,ioos:station:wmo:42047:1,2014-03-02T13:30:00Z,27.8966,-93.5973,4.0,6.534416577,134.1322663,7.95,'11111222,11111222,11111222' 
TABS,ioos:station:wmo:42047:1,2014-03-02T14:00:00Z,27.8966,-93.5973,4.0,6.651105171,139.268199,7.55,'11111222,11111222,11111222' 
TABS,ioos:station:wmo:42047:1,2014-03-02T14:30:00Z,27.8966,-93.5973,4.0,7.897037419,142.2016756,9.19,'11111222,11111222,11111222' 
TABS,ioos:station:wmo:42047:1,2014-03-02T15:00:00Z,27.8966,-93.5973,4.0,8.010649162,144.603963,8.98,'11111222,11111222,11111222' 
TABS,ioos:station:wmo:42047:1,2014-03-02T15:30:00Z,27.8966,-93.5973,4.0,7.974371449,152.7604301,9.11,'11111222,11111222,11111222' 
TABS,ioos:station:wmo:42047:1,2014-03-02T16:00:00Z,27.8966,-93.5973,4.0,7.076785994,147.5228845,8.0,'11111222,11111222,11111222' 
TABS,ioos:station:wmo:42047:1,2014-03-02T16:30:00Z,27.8966,-93.5973,4.0,6.741765347,151.9527851,7.94,'11111222,11111222,11111222' 
TABS,ioos:station:wmo:42047:1,2014-03-02T17:00:00Z,27.8966,-93.5973,4.0,5.580322571,143.7464575,6.25,'11111222,11111222,11111222' 
TABS,ioos:station:wmo:42047:1,2014-03-02T17:30:00Z,27.8966,-93.5973,4.0,6.080008224,143.2246352,6.84,'11111222,11111222,11111222' 
TABS,ioos:station:wmo:42047:1,2014-03-02T18:00:00Z,27.8966,-93.5973,4.0,5.676028541,142.948701,6.81,'11111222,11111222,11111222' 
TABS,ioos:station:wmo:42047:1,2014-03-02T18:30:00Z,27.8966,-93.5973,4.0,5.672424526,140.8672464,6.49,'11111222,11111222,11111222' 
TABS,ioos:station:wmo:42047:1,2014-03-02T19:00:00Z,27.8966,-93.5973,4.0,5.508729436,135.6622385,6.27,'11111222,11111222,11111222' 
TABS,ioos:station:wmo:42047:1,2014-03-02T19:30:00Z,27.8966,-93.5973,4.0,5.848734906,136.0394214,6.67,'11111222,11111222,11111222' 
TABS,ioos:station:wmo:42047:1,2014-03-02T20:00:00Z,27.8966,-93.5973,4.0,6.61556498,132.9789555,7.63,'11111222,11111222,11111222' 
TABS,ioos:station:wmo:42047:1,2014-03-02T20:30:00Z,27.8966,-93.5973,4.0,7.118658582,131.6405469,8.42,'11111222,11111222,11111222' 
TABS,ioos:station:wmo:42047:1,2014-03-02T21:00:00Z,27.8966,-93.5973,4.0,7.3642447,133.2946094,8.94,'11111222,11111222,11111222' 
TABS,ioos:station:wmo:42047:1,2014-03-02T21:30:00Z,27.8966,-93.5973,4.0,7.270247589,137.7319215,8.99,'11111222,11111222,11111222' 
TABS,ioos:station:wmo:42047:1,2014-03-02T22:00:00Z,27.8966,-93.5973,4.0,7.318100847,137.4369582,8.75,'11111222,11111222,11111222' 
TABS,ioos:station:wmo:42047:1,2014-03-02T22:30:00Z,27.8966,-93.5973,4.0,6.566589678,142.3625472,8.05,'11111222,11111222,11111222' 
TABS,ioos:station:wmo:42047:1,2014-03-02T23:00:00Z,27.8966,-93.5973,4.0,6.582051352,142.9040728,7.46,'11111222,11111222,11111222' 
TABS,ioos:station:wmo:42047:1,2014-03-02T23:30:00Z,27.8966,-93.5973,4.0,6.386610995,152.7932802,7.26,'11111222,11111222,11111222' 
TABS,ioos:station:wmo:42047:1,2014-03-03T00:00:00Z,27.8966,-93.5973,4.0,7.004405756,152.4474633,8.7,'11111222,11111222,11111222' 
TABS,ioos:station:wmo:42047:1,2014-03-03T00:30:00Z,27.8966,-93.5973,4.0,6.00300758,152.1972816,7.48,'11111222,11111222,11111222' 
TABS,ioos:station:wmo:42047:1,2014-03-03T01:00:00Z,27.8966,-93.5973,4.0,5.251295078,152.3128779,6.3,'11111222,11111222,11111222' 
TABS,ioos:station:wmo:42047:1,2014-03-03T01:30:00Z,27.8966,-93.5973,4.0,5.572288578,153.3432542,6.83,'11111222,11111222,11111222' 
TABS,ioos:station:wmo:42047:1,2014-03-03T02:00:00Z,27.8966,-93.5973,4.0,5.098284025,151.022083,6.24,'11111222,11111222,11111222' 
TABS,ioos:station:wmo:42047:1,2014-03-03T02:30:00Z,27.8966,-93.5973,4.0,5.980376242,154.549282,7.33,'11111222,11111222,11111222' 
TABS,ioos:station:wmo:42047:1,2014-03-03T03:00:00Z,27.8966,-93.5973,4.0,4.62615391,157.3708714,5.59,'11111222,11111222,11111222' 
TABS,ioos:station:wmo:42047:1,2014-03-03T03:30:00Z,27.8966,-93.5973,4.0,3.567099662,161.8700659,4.19,'11111222,11111222,11111222' 
TABS,ioos:station:wmo:42047:1,2014-03-03T04:00:00Z,27.8966,-93.5973,4.0,1.916898537,223.5204729,2.46,'11111222,11111222,11111222' 
TABS,ioos:station:wmo:42047:1,2014-03-03T04:30:00Z,27.8966,-93.5973,4.0,2.767236889,184.1448245,3.25,'11111222,11111222,11111222' 
TABS,ioos:station:wmo:42047:1,2014-03-03T05:00:00Z,27.8966,-93.5973,4.0,2.81,180.0002105,3.43,'11111222,11111222,11111222' 
TABS,ioos:station:wmo:42047:1,2014-03-03T05:30:00Z,27.8966,-93.5973,4.0,2.008606482,197.0819274,2.63,'11111222,11111222,11111222' 
TABS,ioos:station:wmo:42047:1,2014-03-03T06:00:00Z,27.8966,-93.5973,4.0,1.351036639,223.5005617,1.79,'11111222,11111222,11111222' 
TABS,ioos:station:wmo:42047:1,2014-03-03T06:30:00Z,27.8966,-93.5973,4.0,1.594239631,199.7990405,2.32,'11111222,11111222,11111222' 
TABS,ioos:station:wmo:42047:1,2014-03-03T07:00:00Z,27.8966,-93.5973,4.0,4.718951155,297.6510323,9.06,'11111222,11111222,11111222' 
TABS,ioos:station:wmo:42047:1,2014-03-03T07:30:00Z,27.8966,-93.5973,4.0,11.54283327,327.4525328,14.1,'11111222,11111222,11111222' 
TABS,ioos:station:wmo:42047:1,2014-03-03T08:00:00Z,27.8966,-93.5973,4.0,11.12075537,334.7713028,13.08,'11111222,11111222,11111222' 
TABS,ioos:station:wmo:42047:1,2014-03-03T08:30:00Z,27.8966,-93.5973,4.0,10.46759285,340.0588176,12.26,'11111222,11111222,11111222' 
TABS,ioos:station:wmo:42047:1,2014-03-03T09:00:00Z,27.8966,-93.5973,4.0,10.06691611,344.9144265,12.98,'11111222,11111222,11111222' 
TABS,ioos:station:wmo:42047:1,2014-03-03T09:30:00Z,27.8966,-93.5973,4.0,14.68556094,345.8500286,12.93,'11111222,11111222,11111222' 
TABS,ioos:station:wmo:42047:1,2014-03-03T10:00:00Z,27.8966,-93.5973,4.0,15.44265845,333.8330262,13.4,'11111222,11111222,11111222' 
TABS,ioos:station:wmo:42047:1,2014-03-03T10:30:00Z,27.8966,-93.5973,4.0,12.34507999,357.167521,12.93,'11111222,11111222,11111222' 
TABS,ioos:station:wmo:42047:1,2014-03-03T11:00:00Z,27.8966,-93.5973,4.0,11.26961401,350.345251,13.25,'11111222,11111222,11111222' 
TABS,ioos:station:wmo:42047:1,2014-03-03T11:30:00Z,27.8966,-93.5973,4.0,13.63027513,352.0718274,13.08,'11111222,11111222,11111222' 
TABS,ioos:station:wmo:42047:1,2014-03-03T12:00:00Z,27.8966,-93.5973,4.0,12.66328946,357.374634,13.37,'11111222,11111222,11111222' 
TABS,ioos:station:wmo:42047:1,2014-03-03T12:30:00Z,27.8966,-93.5973,4.0,11.7513446,352.4696026,13.57,'11111222,11111222,11111222' 
TABS,ioos:station:wmo:42047:1,2014-03-03T13:00:00Z,27.8966,-93.5973,4.0,11.33432398,353.0064605,13.6,'11111222,11111222,11111222' 
TABS,ioos:station:wmo:42047:1,2014-03-03T13:30:00Z,27.8966,-93.5973,4.0,10.98377895,357.1295762,13.59,'11111222,11111222,11111222' 
TABS,ioos:station:wmo:42047:1,2014-03-03T14:00:00Z,27.8966,-93.5973,4.0,11.20316027,356.3149975,13.29,'11111222,11111222,11111222' 
TABS,ioos:station:wmo:42047:1,2014-03-03T14:30:00Z,27.8966,-93.5973,4.0,11.25067554,2.495972947,14.22,'11111222,11111222,11111222' 
TABS,ioos:station:wmo:42047:1,2014-03-03T15:00:00Z,27.8966,-93.5973,4.0,10.85140083,7.838655507,13.03,'11111222,11111222,11111222' 
TABS,ioos:station:wmo:42047:1,2014-03-03T15:30:00Z,27.8966,-93.5973,4.0,11.29242224,11.13058507,13.46,'11111222,11111222,11111222' 
TABS,ioos:station:wmo:42047:1,2014-03-03T16:00:00Z,27.8966,-93.5973,4.0,11.43232697,7.286412624,14.81,'11111222,11111222,11111222' 
TABS,ioos:station:wmo:42047:1,2014-03-03T16:30:00Z,27.8966,-93.5973,4.0,11.51314466,2.737929658,13.83,'11111222,11111222,11111222' 
TABS,ioos:station:wmo:42047:1,2014-03-03T17:00:00Z,27.8966,-93.5973,4.0,10.87182137,10.49316128,13.31,'11111222,11111222,11111222' 
TABS,ioos:station:wmo:42047:1,2014-03-03T17:30:00Z,27.8966,-93.5973,4.0,11.45233601,4.30639418,14.17,'11111222,11111222,11111222' 
TABS,ioos:station:wmo:42047:1,2014-03-03T18:00:00Z,27.8966,-93.5973,4.0,11.38426985,10.32261809,13.36,'11111222,11111222,11111222' 
TABS,ioos:station:wmo:42047:1,2014-03-03T18:30:00Z,27.8966,-93.5973,4.0,11.88552902,20.53886036,12.98,'11111222,11111222,11111222' 
TABS,ioos:station:wmo:42047:1,2014-03-03T19:00:00Z,27.8966,-93.5973,4.0,10.01696561,16.589422,12.74,'11111222,11111222,11111222' 
TABS,ioos:station:wmo:42047:1,2014-03-03T19:30:00Z,27.8966,-93.5973,4.0,9.455606802,21.78989596,11.64,'11111222,11111222,11111222' 
TABS,ioos:station:wmo:42047:1,2014-03-03T20:00:00Z,27.8966,-93.5973,4.0,10.23402658,22.2793804,12.88,'11111222,11111222,11111222' 
TABS,ioos:station:wmo:42047:1,2014-03-03T20:30:00Z,27.8966,-93.5973,4.0,9.717967895,26.45931043,11.85,'11111222,11111222,11111222' 
TABS,ioos:station:wmo:42047:1,2014-03-03T21:00:00Z,27.8966,-93.5973,4.0,9.52513517,18.9292669,11.68,'11111222,11111222,11111222' 
TABS,ioos:station:wmo:42047:1,2014-03-03T21:30:00Z,27.8966,-93.5973,4.0,12.68775788,21.06318874,11.57,'11111222,11111222,11111222' 
TABS,ioos:station:wmo:42047:1,2014-03-03T22:00:00Z,27.8966,-93.5973,4.0,10.88016544,22.93556702,11.37,'11111222,11111222,11111222' 
TABS,ioos:station:wmo:42047:1,2014-03-03T22:30:00Z,27.8966,-93.5973,4.0,10.55627302,16.90694462,12.68,'11111222,11111222,11111222' 
TABS,ioos:station:wmo:42047:1,2014-03-03T23:00:00Z,27.8966,-93.5973,4.0,9.659813663,26.5647786,11.84,'11111222,11111222,11111222' 
TABS,ioos:station:wmo:42047:1,2014-03-03T23:30:00Z,27.8966,-93.5973,4.0,9.809913353,31.32407087,12.35,'11111222,11111222,11111222' 
TABS,ioos:station:wmo:42047:1,2014-03-04T00:00:00Z,27.8966,-93.5973,4.0,10.29971359,24.12602071,13.3,'11111222,11111222,11111222' 
TABS,ioos:station:wmo:42047:1,2014-03-04T00:30:00Z,27.8966,-93.5973,4.0,9.858620593,32.65811677,12.39,'11111222,11111222,11111222' 
TABS,ioos:station:wmo:42047:1,2014-03-04T01:00:00Z,27.8966,-93.5973,4.0,9.366626928,27.74117141,11.53,'11111222,11111222,11111222' 
TABS,ioos:station:wmo:42047:1,2014-03-04T01:30:00Z,27.8966,-93.5973,4.0,10.10182657,32.17944928,12.22,'11111222,11111222,11111222' 
TABS,ioos:station:wmo:42047:1,2014-03-04T02:00:00Z,27.8966,-93.5973,4.0,9.6285461,26.72445021,11.28,'11111222,11111222,11111222' 
TABS,ioos:station:wmo:42047:1,2014-03-04T02:30:00Z,27.8966,-93.5973,4.0,10.37674805,28.49120213,11.71,'11111222,11111222,11111222' 
TABS,ioos:station:wmo:42047:1,2014-03-04T03:00:00Z,27.8966,-93.5973,4.0,12.92840671,24.00722023,13.38,'11111222,11111222,11111222' 
TABS,ioos:station:wmo:42047:1,2014-03-04T03:30:00Z,27.8966,-93.5973,4.0,11.58406233,36.68164977,12.57,'11111222,11111222,11111222' 
TABS,ioos:station:wmo:42047:1,2014-03-04T04:00:00Z,27.8966,-93.5973,4.0,11.33321667,41.63742993,11.74,'11111222,11111222,11111222' 
TABS,ioos:station:wmo:42047:1,2014-03-04T04:30:00Z,27.8966,-93.5973,4.0,8.52214175,48.47221935,10.96,'11111222,11111222,11111222' 
TABS,ioos:station:wmo:42047:1,2014-03-04T05:00:00Z,27.8966,-93.5973,4.0,7.928127143,42.34143829,10.79,'11111222,11111222,11111222' 
TABS,ioos:station:wmo:42047:1,2014-03-04T05:30:00Z,27.8966,-93.5973,4.0,9.257326828,55.07355603,11.08,'11111222,11111222,11111222' 
TABS,ioos:station:wmo:42047:1,2014-03-04T06:00:00Z,27.8966,-93.5973,4.0,8.845903006,42.70907963,10.89,'11111222,11111222,11111222' 
TABS,ioos:station:wmo:42047:1,2014-03-04T06:30:00Z,27.8966,-93.5973,4.0,8.103554776,44.69970985,10.29,'11111222,11111222,11111222' 
TABS,ioos:station:wmo:42047:1,2014-03-04T07:00:00Z,27.8966,-93.5973,4.0,7.470107094,47.98395948,10.45,'11111222,11111222,11111222' 
TABS,ioos:station:wmo:42047:1,2014-03-04T07:30:00Z,27.8966,-93.5973,4.0,7.398276826,37.36525248,9.89,'11111222,11111222,11111222' 
TABS,ioos:station:wmo:42047:1,2014-03-04T08:00:00Z,27.8966,-93.5973,4.0,10.86323156,46.11859763,10.83,'11111222,11111222,11111222' 
TABS,ioos:station:wmo:42047:1,2014-03-04T08:30:00Z,27.8966,-93.5973,4.0,10.47032473,49.06599358,10.53,'11111222,11111222,11111222' 
TABS,ioos:station:wmo:42047:1,2014-03-04T09:00:00Z,27.8966,-93.5973,4.0,6.947301634,40.91407709,8.79,'11111222,11111222,11111222' 
TABS,ioos:station:wmo:42047:1,2014-03-04T09:30:00Z,27.8966,-93.5973,4.0,8.010474393,50.82601272,9.7,'11111222,11111222,11111222' 
TABS,ioos:station:wmo:42047:1,2014-03-04T10:00:00Z,27.8966,-93.5973,4.0,9.712878049,61.05963406,12.68,'11111222,11111222,11111222' 
TABS,ioos:station:wmo:42047:1,2014-03-04T10:30:00Z,27.8966,-93.5973,4.0,9.343842893,60.71872035,11.45,'11111222,11111222,11111222' 
TABS,ioos:station:wmo:42047:1,2014-03-04T11:00:00Z,27.8966,-93.5973,4.0,9.249659453,56.4642109,12.0,'11111222,11111222,11111222' 
TABS,ioos:station:wmo:42047:1,2014-03-04T11:30:00Z,27.8966,-93.5973,4.0,8.572630868,19.91432757,11.41,'11111222,11111222,11111222' 
TABS,ioos:station:wmo:42047:1,2014-03-04T12:00:00Z,27.8966,-93.5973,4.0,11.46135245,2.55013697,14.4,'11111222,11111222,11111222' 
TABS,ioos:station:wmo:42047:1,2014-03-04T12:30:00Z,27.8966,-93.5973,4.0,9.468035699,357.6390437,11.33,'11111222,11111222,11111222' 
TABS,ioos:station:wmo:42047:1,2014-03-04T13:00:00Z,27.8966,-93.5973,4.0,9.667579842,13.76289205,11.86,'11111222,11111222,11111222' 
TABS,ioos:station:wmo:42047:1,2014-03-04T13:30:00Z,27.8966,-93.5973,4.0,11.02454081,42.02167062,13.54,'11111222,11111222,11111222' 
TABS,ioos:station:wmo:42047:1,2014-03-04T14:00:00Z,27.8966,-93.5973,4.0,9.442340811,42.42440441,11.69,'11111222,11111222,11111222' 
TABS,ioos:station:wmo:42047:1,2014-03-04T14:30:00Z,27.8966,-93.5973,4.0,7.528193674,37.28058819,9.52,'11111222,11111222,11111222' 
TABS,ioos:station:wmo:42047:1,2014-03-04T15:00:00Z,27.8966,-93.5973,4.0,7.487088887,14.14736185,8.83,'11111222,11111222,11111222' 
TABS,ioos:station:wmo:42047:1,2014-03-04T15:30:00Z,27.8966,-93.5973,4.0,7.438904489,62.19446908,9.07,'11111222,11111222,11111222' 
TABS,ioos:station:wmo:42047:1,2014-03-04T16:00:00Z,27.8966,-93.5973,4.0,7.444326699,55.83996442,9.72,'11111222,11111222,11111222' 
TABS,ioos:station:wmo:42047:1,2014-03-04T16:30:00Z,27.8966,-93.5973,4.0,9.271057113,72.87417177,11.05,'11111222,11111222,11111222' 
TABS,ioos:station:wmo:42047:1,2014-03-04T17:00:00Z,27.8966,-93.5973,4.0,8.753170854,86.85606542,10.46,'11111222,11111222,11111222' 
TABS,ioos:station:wmo:42047:1,2014-03-04T17:30:00Z,27.8966,-93.5973,4.0,8.705906041,69.9827829,10.36,'11111222,11111222,11111222' 
TABS,ioos:station:wmo:42047:1,2014-03-04T18:00:00Z,27.8966,-93.5973,4.0,8.969726863,72.61511052,10.74,'11111222,11111222,11111222' 
TABS,ioos:station:wmo:42047:1,2014-03-04T18:30:00Z,27.8966,-93.5973,4.0,7.257637357,39.1280217,8.84,'11111222,11111222,11111222' 